Location: Iesi
(43.5167°N, 13.2333°E)
Time: 01:09:00
(UTC+00:00)

Cosmos 1805 Rocket - Pass Details

Date: 08 August 2020
Orbit: 605 x 630 km, 82.5° (Epoch: 19 September)

Event Time Altitude Azimuth Distance (km) Brightness Sun altitude
Rises 18:52:56 0° 164° (SSE) 2,887 6.6 -6.2°
Reaches altitude 10° 18:55:17 10° 155° (SSE) 1,990 5.7 -6.6°
Maximum altitude 18:59:16 34° 91° (E) 1,033 4.3 -7.2°
Drops below altitude 10° 19:03:18 10° 26° (NNE) 2,015 6.3 -7.8°
Sets 19:05:42 0° 18° (NNE) 2,930 7.2 -8.2°
